Starlink 30114

operational
NORAD ID: 56826 Int'l Des: 2023-079 Owner: SPXS Country: US Constellation: starlink
LEOCIRCULAR

About Starlink 30114

Description loading...

Live Position

Loading 3D Globe...

Upcoming Passes

Altitude History

Altitude vs Time

uPlot chart will show altitude changes over time

Two-Line Element Set

1 56826U 23079D 26095.01752656 -.00000474 00000-0 -79684-5 0 9998
2 56826 43.0030 318.2779 0001585 264.5636 95.5035 15.26763007157228
Epoch: Apr 5, 2026 • Age: 21 hours

Current Status

Altitude 488.8 km
Velocity 7.63 km/s
Sub-Earth Point 39.24°N, 137.11°W
Launch Date Jun 4, 2023
Age 2.8 years
Type internet

Technical Details

Classification Payload
Mass 730.00 kg
Dry Mass 700.00 kg
Total Mass 730.00 kg
Length 0.30 m
Diameter 4.10 m
Span 29.00 m
Shape Box + pan
Manufacturer SPXS
Bus Type Starlink V2M
Phase Status In Orbit
Owner/State SPXS/US

Large Constellations

Loading constellations...